This demonstration page uses our WeatherBlox Daily Observations layout. Learn more.

Left ArrowRight Arrow

38.88101, -77.10428

Hourly Observations for January 9, 2021

Temp ( °F °C ) Dew Point ( °F °C ) Humidity (%) Winds ( mph kmh ) Pressure ( in mb ) Visibility ( mi km ) Precip ( " mm )
12:52 am 00:52 Mostly Cloudy 34 1.1 23 -5 64 64 NNW 15 24 29.88 1012 10 16 0.00 0.00
1:52 am 01:52 Mostly Cloudy 33 0.6 21 -6.1 61 61 NNW 12 19 29.89 1012 10 16 0.00 0.00
2:52 am 02:52 Mostly Cloudy 33 0.6 17 -8.3 52 52 N 14 22 29.89 1012 10 16 0.00 0.00
3:52 am 03:52 Mostly Cloudy 33 0.6 16 -8.9 49 49 N 15 24 29.89 1012 10 16 0.00 0.00
4:52 am 04:52 Mostly Cloudy 34 1.1 14 -10 44 44 N 18 30 29.90 1013 10 16 0.00 0.00
5:52 am 05:52 Mostly Cloudy 33 0.6 15 -9.4 47 47 N 18 30 29.92 1013 10 16 0.00 0.00
6:52 am 06:52 Mostly Cloudy 32 0 15 -9.4 50 50 N 16 26 29.95 1014 10 16 0.00 0.00
7:52 am 07:52 Mostly Cloudy 33 0.6 15 -9.4 47 47 NNW 12 19 29.97 1015 10 16 0.00 0.00
8:52 am 08:52 Mostly Cloudy 33 0.6 16 -8.9 49 49 NNW 13 20 30.01 1016 10 16 0.00 0.00
9:52 am 09:52 Mostly Cloudy 35 1.7 16 -8.9 46 46 NW 13 20 30.02 1017 10 16 0.00 0.00
10:52 am 10:52 Mostly Cloudy 40 4.4 15 -9.4 36 36 N 15 24 30.01 1016 10 16 0.00 0.00
11:52 am 11:52 Partly Cloudy 42 5.6 13 -10.6 30 30 NW 9 15 30.00 1016 10 16 0.00 0.00
12:52 pm 12:52 Partly Cloudy 44 6.7 13 -10.6 28 28 NW 16 26 29.98 1015 10 16 0.00 0.00
1:52 pm 13:52 Mostly Sunny 46 7.8 14 -10 27 27 N 20 31 29.97 1015 10 16 0.00 0.00
2:52 pm 14:52 Mostly Sunny 47 8.3 17 -8.3 30 30 N 20 31 29.98 1015 10 16 0.00 0.00
3:52 pm 15:52 Mostly Sunny 47 8.3 18 -7.8 31 31 N 21 33 29.99 1016 10 16 0.00 0.00
4:52 pm 16:52 Mostly Sunny 45 7.2 18 -7.8 34 34 NNW 18 30 30.01 1016 10 16 0.00 0.00
5:52 pm 17:52 Mostly Clear 43 6.1 20 -6.7 40 40 NNW 13 20 30.04 1017 10 16 0.00 0.00
6:52 pm 18:52 Mostly Clear 43 6.1 22 -5.6 43 43 NW 14 22 30.06 1018 10 16 0.00 0.00
7:52 pm 19:52 Mostly Clear 41 5 23 -5 49 49 NNW 15 24 30.07 1018 10 16 0.00 0.00
8:52 pm 20:52 Clear 41 5 23 -5 49 49 NNW 14 22 30.08 1019 10 16 0.00 0.00
9:52 pm 21:52 Clear 40 4.4 24 -4.4 53 53 NW 16 26 30.09 1019 10 16 0.00 0.00
10:52 pm 22:52 Mostly Clear 39 3.9 24 -4.4 55 55 NW 16 26 30.10 1019 10 16 0.00 0.00
11:52 pm 23:52 Mostly Clear 39 3.9 23 -5 53 53 NNW 13 20 30.10 1019 10 16 0.00 0.00

Powered by AerisWeather